GIA67 YPPH-WIII

Flight info

Callsign GIA67
Flight time N/A
Altitude 35000
Route AVNEX Y15 ESDEG/N0489F360 Q587 IGLUT T58 SAPDA A585 IPKON
Aircraft B77W/H-SDE1E2E3FGHIJ2J3J4J5M1RWXY/LB1D1

Departure

Time 2026-05-04 08:04
Airport Perth International Airport (YPPH)

Arrival

Time N/A
Airport Soekarno-Hatta International Airport (WIII)
Time Latitude Longitude Altitude Speed Heading
2026-05-04 07:42 -31.93282 115.96222 56 ft 0 kts 252°
2026-05-04 07:54 -31.93254 115.96269 48 ft 0 kts 185°
2026-05-04 07:57 -31.93289 115.96274 51 ft 12 kts 168°
2026-05-04 07:57 -31.93347 115.96292 52 ft 2 kts 166°
2026-05-04 07:58 -31.93421 115.96365 52 ft 14 kts 128°
2026-05-04 07:58 -31.93476 115.96410 51 ft 16 kts 165°
2026-05-04 07:58 -31.93597 115.96402 52 ft 19 kts 193°
2026-05-04 07:58 -31.93732 115.96358 52 ft 21 kts 197°
2026-05-04 07:59 -31.93872 115.96312 50 ft 21 kts 195°
2026-05-04 07:59 -31.94016 115.96272 51 ft 21 kts 193°
2026-05-04 07:59 -31.94159 115.96232 52 ft 21 kts 194°
2026-05-04 07:59 -31.94301 115.96190 52 ft 21 kts 194°
2026-05-04 08:00 -31.94444 115.96149 50 ft 21 kts 194°
2026-05-04 08:00 -31.94586 115.96107 52 ft 21 kts 194°
2026-05-04 08:00 -31.94728 115.96066 52 ft 21 kts 194°
2026-05-04 08:02 -31.95722 115.95775 52 ft 21 kts 193°
2026-05-04 08:02 -31.95818 115.95783 52 ft 8 kts 141°
2026-05-04 08:02 -31.95835 115.95813 49 ft 0 kts 113°
2026-05-04 08:03 -31.95837 115.95822 48 ft 5 kts 111°
2026-05-04 08:03 -31.95834 115.95944 49 ft 24 kts 56°
2026-05-04 08:03 -31.95598 115.96047 53 ft 67 kts 13°
2026-05-04 08:03 -31.94765 115.96289 50 ft 179 kts 14°
2026-05-04 08:04 -31.93302 115.96714 658 ft 230 kts 15°
2026-05-04 08:04 -31.91751 115.97137 2234 ft 228 kts 14°
2026-05-04 08:04 -31.90162 115.97556 2784 ft 244 kts 12°
2026-05-04 08:04 -31.88408 115.97403 3258 ft 264 kts 342°
2026-05-04 08:05 -31.86852 115.96230 4024 ft 273 kts 312°
2026-05-04 08:05 -31.85958 115.94299 4800 ft 277 kts 285°
2026-05-04 08:05 -31.85607 115.92061 5470 ft 282 kts 278°
2026-05-04 08:05 -31.85326 115.89753 6233 ft 287 kts 278°
2026-05-04 08:06 -31.85047 115.87410 7026 ft 291 kts 278°
2026-05-04 08:06 -31.84764 115.85054 7858 ft 292 kts 278°
2026-05-04 08:06 -31.84474 115.82682 8658 ft 294 kts 278°
2026-05-04 08:06 -31.84176 115.80294 9443 ft 297 kts 278°
2026-05-04 08:08 -31.81403 115.61608 12354 ft 395 kts 326°
2026-05-04 08:08 -31.78900 115.60310 13268 ft 396 kts 350°
2026-05-04 08:10 -31.55976 115.60626 19349 ft 436 kts 357°
2026-05-04 08:11 -31.52930 115.60454 20064 ft 440 kts 357°
2026-05-04 08:11 -31.46755 115.60132 21480 ft 449 kts 357°
2026-05-04 08:11 -31.43620 115.59973 22146 ft 453 kts 357°
2026-05-04 08:12 -31.40457 115.59812 22870 ft 457 kts 357°
2026-05-04 08:12 -31.37312 115.59654 23551 ft 461 kts 357°
2026-05-04 08:12 -31.34093 115.59490 24141 ft 465 kts 356°
2026-05-04 08:12 -31.30856 115.59335 24753 ft 466 kts 358°
2026-05-04 08:13 -31.27612 115.59572 25322 ft 470 kts
2026-05-04 08:13 -31.24424 115.60438 25993 ft 471 kts 16°
2026-05-04 08:13 -31.21365 115.61825 26616 ft 473 kts 25°
2026-05-04 08:13 -31.18429 115.63593 27083 ft 477 kts 26°
2026-05-04 08:14 -31.15481 115.65422 27524 ft 482 kts 26°
2026-05-04 08:14 -31.12503 115.67266 28003 ft 486 kts 26°
2026-05-04 08:14 -31.09509 115.69099 28517 ft 487 kts 26°
2026-05-04 08:16 -30.88139 115.81871 31621 ft 493 kts 25°
2026-05-04 08:16 -30.85075 115.83654 32038 ft 492 kts 21°
2026-05-04 08:16 -30.81888 115.85074 32443 ft 489 kts 14°
2026-05-04 08:17 -30.78661 115.86073 32857 ft 486 kts
2026-05-04 08:17 -30.75338 115.86722 33272 ft 482 kts
2026-05-04 08:17 -30.72004 115.87068 33666 ft 481 kts
2026-05-04 08:17 -30.68686 115.87380 34041 ft 481 kts
2026-05-04 08:19 -30.45311 115.89709 35994 ft 483 kts
2026-05-04 08:19 -30.41963 115.90056 36161 ft 486 kts
2026-05-04 08:20 -30.35176 115.90755 36269 ft 490 kts
2026-05-04 08:20 -30.28403 115.91456 36261 ft 486 kts
2026-05-04 08:21 -30.07108 115.93643 36244 ft 482 kts
2026-05-04 08:21 -29.80177 115.96391 36277 ft 498 kts
2026-05-04 08:22 -29.29745 116.01550 35994 ft 485 kts 359°
2026-05-04 08:24 -25.45254 115.78522 36071 ft 493 kts 346°
2026-05-04 08:24 -24.91180 115.75211 36065 ft 495 kts 346°
2026-05-04 08:24 -23.80579 115.68544 36018 ft 500 kts 345°
2026-05-04 08:25 -22.69347 115.61902 36039 ft 503 kts 345°
2026-05-04 08:25 -21.80947 115.53117 32714 ft 420 kts 313°
2026-05-04 08:26 -21.78714 115.51168 33102 ft 413 kts 309°
2026-05-04 08:27 -21.19125 115.16237 36143 ft 483 kts 322°
2026-05-04 08:28 -20.95180 115.03185 36025 ft 481 kts 323°
2026-05-04 08:28 -20.72456 114.90805 35913 ft 467 kts 323°
2026-05-04 08:28 -20.49651 114.78456 35907 ft 456 kts 323°
2026-05-04 08:28 -20.26940 114.66178 36017 ft 461 kts 324°
2026-05-04 08:29 -20.03728 114.53674 36118 ft 474 kts 324°
2026-05-04 08:29 -19.79976 114.40932 36054 ft 481 kts 324°
2026-05-04 08:31 -16.32965 113.02809 35905 ft 483 kts 334°
2026-05-04 08:33 -12.31046 111.53977 35902 ft 485 kts 338°
2026-05-04 08:35 -11.77594 111.24448 35892 ft 480 kts 320°
2026-05-04 08:35 -11.75018 111.22349 35895 ft 480 kts 320°
2026-05-04 08:35 -11.69772 111.18084 35891 ft 481 kts 320°
2026-05-04 08:37 -11.18089 110.76156 35890 ft 482 kts 320°
2026-05-04 08:38 -10.97151 110.59224 35883 ft 482 kts 320°
2026-05-04 08:38 -10.76145 110.42269 35881 ft 482 kts 320°
2026-05-04 08:40 -9.92387 109.74966 35871 ft 482 kts 321°
2026-05-04 08:41 -9.71350 109.58134 35872 ft 481 kts 321°
2026-05-04 08:41 -9.50319 109.41336 35870 ft 481 kts 322°
2026-05-04 08:42 -9.29276 109.24553 35872 ft 481 kts 322°
2026-05-04 08:42 -9.08212 109.07780 35869 ft 483 kts 322°
2026-05-04 08:43 -8.87413 108.91245 35868 ft 484 kts 322°
2026-05-04 08:43 -8.66177 108.74386 35875 ft 486 kts 322°
2026-05-04 08:44 -8.44843 108.57476 35871 ft 488 kts 323°
2026-05-04 08:46 -7.91690 108.27472 35876 ft 480 kts
2026-05-04 08:46 -7.84988 108.27770 35877 ft 483 kts
2026-05-04 08:47 -7.78261 108.28035 35883 ft 485 kts
2026-05-04 08:47 -7.71510 108.28303 35880 ft 486 kts
2026-05-04 08:48 -7.64756 108.28576 35882 ft 486 kts
2026-05-04 08:48 -7.58019 108.28846 35892 ft 485 kts
2026-05-04 08:49 -7.51281 108.29113 35882 ft 484 kts
2026-05-04 08:50 -7.27792 108.30044 35905 ft 484 kts
2026-05-04 08:51 -7.21058 108.30312 35906 ft 484 kts
2026-05-04 08:51 -7.14320 108.30578 35910 ft 485 kts
2026-05-04 08:52 -7.10951 108.30712 35783 ft 482 kts
2026-05-04 08:52 -7.07646 108.30843 35849 ft 472 kts
2026-05-04 08:52 -7.01022 108.31106 35898 ft 482 kts
2026-05-04 08:54 -6.75258 108.30475 35907 ft 487 kts 336°
2026-05-04 08:55 -6.71374 108.28123 35850 ft 488 kts 322°
2026-05-04 08:55 -6.69624 108.26686 35403 ft 494 kts 321°
2026-05-04 08:55 -6.66984 108.24436 34350 ft 501 kts 320°
2026-05-04 08:55 -6.64351 108.22159 32842 ft 500 kts 320°
2026-05-04 08:57 -6.45219 108.05999 27487 ft 500 kts 322°
2026-05-04 09:01 -6.10668 107.77114 18191 ft 436 kts 321°
2026-05-04 09:01 -6.08367 107.75191 17806 ft 416 kts 322°
2026-05-04 09:01 -6.06241 107.73412 17588 ft 381 kts 321°
2026-05-04 09:01 -6.04289 107.71780 17421 ft 351 kts 322°
2026-05-04 09:02 -6.02441 107.70237 17304 ft 341 kts 322°
2026-05-04 09:02 -6.00637 107.68732 17171 ft 334 kts 322°
2026-05-04 09:02 -5.98880 107.67266 17111 ft 323 kts 322°
2026-05-04 09:02 -5.97283 107.65774 16993 ft 315 kts 307°
2026-05-04 09:03 -5.96306 107.63803 16774 ft 324 kts 285°
2026-05-04 09:03 -5.96066 107.61506 16410 ft 337 kts 270°
2026-05-04 09:03 -5.96074 107.59151 15981 ft 339 kts 269°
2026-05-04 09:03 -5.96105 107.56778 15562 ft 340 kts 269°
2026-05-04 09:04 -5.96133 107.54397 15135 ft 341 kts 269°
2026-05-04 09:04 -5.96152 107.52008 14704 ft 343 kts 269°
2026-05-04 09:04 -5.96162 107.49612 14262 ft 344 kts 270°
2026-05-04 09:04 -5.96168 107.47207 13845 ft 345 kts 270°
2026-05-04 09:05 -5.96170 107.44799 13476 ft 344 kts 270°
2026-05-04 09:05 -5.96170 107.42394 13074 ft 342 kts 270°
2026-05-04 09:05 -5.96170 107.40007 12600 ft 343 kts 270°
2026-05-04 09:05 -5.96169 107.37637 12350 ft 337 kts 270°
2026-05-04 09:06 -5.96168 107.35317 12257 ft 325 kts 270°
2026-05-04 09:07 -5.96154 107.20391 9497 ft 287 kts 270°
2026-05-04 09:08 -5.96151 107.18412 8929 ft 280 kts 270°
2026-05-04 09:08 -5.96148 107.16489 8392 ft 272 kts 271°
2026-05-04 09:08 -5.96136 107.14595 7861 ft 274 kts 271°
2026-05-04 09:08 -5.96120 107.12677 7536 ft 274 kts 271°
2026-05-04 09:09 -5.96111 107.10770 7213 ft 271 kts 269°
2026-05-04 09:09 -5.96513 107.08955 6919 ft 259 kts 248°
2026-05-04 09:09 -5.97191 107.07274 6519 ft 262 kts 248°
2026-05-04 09:09 -5.97867 107.05583 6284 ft 257 kts 248°
2026-05-04 09:10 -5.98523 107.03932 5901 ft 254 kts 248°
2026-05-04 09:10 -5.99175 107.02290 5606 ft 253 kts 248°
2026-05-04 09:10 -5.99822 107.00650 5286 ft 249 kts 248°
2026-05-04 09:10 -6.00428 106.99107 4999 ft 240 kts 248°
2026-05-04 09:11 -6.01036 106.97551 4716 ft 238 kts 248°
2026-05-04 09:11 -6.01625 106.96040 4423 ft 229 kts 249°
2026-05-04 09:11 -6.02196 106.94571 4168 ft 224 kts 248°
2026-05-04 09:11 -6.02758 106.93136 4067 ft 217 kts 248°
2026-05-04 09:12 -6.03316 106.91737 4017 ft 215 kts 248°
2026-05-04 09:12 -6.03871 106.90343 4005 ft 215 kts 248°
2026-05-04 09:14 -6.07657 106.80860 2722 ft 181 kts 249°
2026-05-04 09:14 -6.08110 106.79724 2502 ft 171 kts 250°
2026-05-04 09:14 -6.08556 106.78607 2303 ft 171 kts 250°
2026-05-04 09:14 -6.08984 106.77539 2068 ft 157 kts 250°
2026-05-04 09:15 -6.09384 106.76538 1911 ft 155 kts 250°
2026-05-04 09:15 -6.09789 106.75530 1713 ft 152 kts 251°
2026-05-04 09:15 -6.10187 106.74530 1518 ft 159 kts 253°
2026-05-04 09:15 -6.10605 106.73485 1300 ft 161 kts 252°
2026-05-04 09:17 -6.13508 106.65951 996 ft 139 kts 276°